Location: Berlise
(49.6641°N, 4.1077°E)
Time: 19:51:06
(UTC+00:00)

USA 307 - Pass Details

Date: 27 January 2021
Orbit: 565 x 580 km, 54.0° (Epoch: 26 February)

Event Time Altitude Azimuth Distance (km) Brightness Sun altitude
Exits shadow 04:43:54 42° 151° (SSE) 807 3.7 -25.6°
Maximum altitude 04:44:06 43° 143° (SE) 803 3.8 -25.5°
Drops below altitude 10° 04:48:07 10° 71° (ENE) 1,865 6.5 -24.9°
Sets 04:50:26 0° 65° (ENE) 2,765 7.5 -24.5°
